Location: Unspecified
(0.0000°N, 0.0000°E)
Time: 19:34:23
(UTC+00:00)

CUBESAT XI-V - Pass Details

Date: 17 December 2017
Orbit: 670 x 693 km, 97.9° (Epoch: 21 July)

Event Time Altitude Azimuth Distance (km) Brightness Sun altitude
Rises 04:55:18 0° 206° (SSW) 3,022 ? -13.9°
Reaches altitude 10° 04:59:03 10° 237° (WSW) 2,110 ? -13.1°
Enters shadow 05:00:37 12° 257° (WSW) 1,999 ? -12.7°
